Location: ?????
(30.4569°N, 47.8921°E)
Time: 05:29:46
(UTC+00:00)

Landsat 5 - Pass Details

Date: 07 June 2020
Orbit: 528 x 655 km, 98.2° (Epoch: 03 July)

Event Time Altitude Azimuth Distance (km) Brightness Sun altitude
Exits shadow 00:59:48 - 190° (S) 2,797 6.5 -9.4°
Reaches altitude 10° 01:01:48 10° 199° (SSW) 2,055 5.8 -9.0°
Maximum altitude 01:05:47 31° 262° (W) 1,141 4.4 -8.3°
Drops below altitude 10° 01:09:47 10° 324° (NW) 2,052 6.2 -7.6°
Sets 01:12:12 0° 335° (NNW) 2,954 7.1 -7.1°
